EW8440 Round Hill VA US current weather conditions

sailwx.info

Wind from 129

Air temperature 21.7° C
Dewpoint 19.9° C

Last reported at 2020-Aug-15 04:00 UTC.
Time now 2020-Aug-15 04:59 UTC

Location: N 39°03' W 077°49'.
View on Google Maps.

See reports from other nearby stations

  
Tides and Currents Weather Stations Pressure Air Temp Water Temp Dewpoint Dewpoint Depression Visibility Wind Speed Wind Dir Waves Ship Positions
date/time (UTC)wind fromknots sea level pressurealtimeterstation pressurevisibilityair tempwater tempwave heightnotes
2020-Aug-15 04:00 129 21.7
2020-Aug-15 03:45 129 21.7
2020-Aug-15 03:30 129 21.7
2020-Aug-15 03:16 129 22.2
2020-Aug-15 03:03 129 22.2
2020-Aug-15 02:46 129 22.8
2020-Aug-15 02:31 129 22.8
2020-Aug-15 02:16 129 22.8
2020-Aug-15 02:04 129 22.8
2020-Aug-15 01:47 129 22.8
2020-Aug-15 01:31 129 22.8
2020-Aug-15 01:16 129 22.8
2020-Aug-15 01:02 129 23.3
2020-Aug-15 00:46 129 23.3
2020-Aug-15 00:32 129 23.3
2020-Aug-15 00:16 129 23.3
2020-Aug-15 00:02 129 23.9
2020-Aug-14 23:47 129 23.9
2020-Aug-14 23:31 129 23.9
2020-Aug-14 23:17 129 23.9
2020-Aug-14 23:01 129 23.9
2020-Aug-14 22:46 129 23.9
2020-Aug-14 22:31 128 24.4
2020-Aug-14 22:16 128 27.2
2020-Aug-14 22:01 130 28.9
2020-Aug-14 21:47 104 30.0
2020-Aug-14 21:31 132 30.0
2020-Aug-14 21:16 126 30.0
2020-Aug-14 21:00 078 30.0
2020-Aug-14 20:46 127 30.6
2020-Aug-14 20:31 199 30.0
2020-Aug-14 20:16 041 1 gusting 6 29.4
2020-Aug-14 20:01 111 28.9
2020-Aug-14 19:45 036 28.3
2020-Aug-14 19:30 048 28.3
2020-Aug-14 19:15 111 28.9
2020-Aug-14 19:01 110 28.9
2020-Aug-14 18:45 034 28.9
2020-Aug-14 18:32 086 28.9
2020-Aug-14 18:15 057 28.9
2020-Aug-14 18:00 134 0 gusting 6 28.9
2020-Aug-14 17:45 106 0 gusting 2 27.8
2020-Aug-14 17:30 147 27.8
2020-Aug-14 17:15 040 1 gusting 6 27.2
2020-Aug-14 17:00 109 26.7
2020-Aug-14 16:45 116 0 gusting 4 26.7
2020-Aug-14 16:30 077 26.7
2020-Aug-14 16:15 080 26.1
2020-Aug-14 16:00 103 26.1
2020-Aug-14 15:45 118 0 gusting 6 26.1
2020-Aug-14 15:31 035 25.6
2020-Aug-14 15:16 110 25.0
2020-Aug-14 15:00 128 25.0
2020-Aug-14 14:47 109 24.4
2020-Aug-14 14:31 099 24.4
2020-Aug-14 14:17 130 24.4
2020-Aug-14 14:01 061 24.4
2020-Aug-14 13:46 061 24.4
2020-Aug-14 13:32 079 23.9
2020-Aug-14 13:17 070 23.9
2020-Aug-14 13:01 053 23.9
2020-Aug-14 12:46 136 0 gusting 4 23.9
2020-Aug-14 12:31 080 23.3
2020-Aug-14 12:16 126 23.3
2020-Aug-14 12:01 107 22.8
2020-Aug-14 11:46 103 22.8
2020-Aug-14 11:31 036 22.2
2020-Aug-14 11:16 044 22.2
2020-Aug-14 11:00 044 22.2
2020-Aug-14 10:46 044 22.2
2020-Aug-14 10:30 040 22.2
2020-Aug-14 10:15 040 21.7
2020-Aug-14 10:01 042 21.7
2020-Aug-14 09:45 042 21.7
2020-Aug-14 09:31 042 21.7
2020-Aug-14 09:15 042 21.7
2020-Aug-14 09:00 042 21.7
2020-Aug-14 08:46 042 21.7
2020-Aug-14 08:30 042 21.7
2020-Aug-14 08:15 042 22.2
2020-Aug-14 08:00 041 22.2
2020-Aug-14 07:45 041 0 gusting 4 22.2
2020-Aug-14 07:30 046 22.2
2020-Aug-14 07:15 046 22.2
2020-Aug-14 07:00 209 22.2
2020-Aug-14 06:45 209 22.2
2020-Aug-14 06:30 209 22.2
2020-Aug-14 06:15 209 22.2
2020-Aug-14 06:00 209 22.2
2020-Aug-14 05:45 211 22.2
2020-Aug-14 05:30 211 22.2
2020-Aug-14 05:15 211 22.8
2020-Aug-14 05:01 211 22.8
2020-Aug-14 04:47 211 22.8
2020-Aug-14 04:31 211 22.8
2020-Aug-14 04:16 211 22.8
2020-Aug-14 04:02 211 22.8
2020-Aug-14 03:47 211 22.8
2020-Aug-14 03:31 211 22.8
2020-Aug-14 03:16 211 22.8
2020-Aug-14 03:01 211 22.8
2020-Aug-14 02:47 211 22.8
2020-Aug-14 02:32 211 22.8
2020-Aug-14 02:16 211 22.8
2020-Aug-14 02:01 211 22.8
2020-Aug-14 01:46 211 23.3
2020-Aug-14 01:31 211 23.3
2020-Aug-14 01:16 211 23.9
2020-Aug-14 01:01 211 24.4
2020-Aug-14 00:46 211 24.4
2020-Aug-14 00:17 211 25.6
2020-Aug-14 00:01 211 26.1
2020-Aug-13 23:01 168 28.3
2020-Aug-13 22:46 133 28.3
2020-Aug-13 22:31 234 28.3
2020-Aug-13 22:16 244 27.8
2020-Aug-13 22:01 244 28.3
2020-Aug-13 21:46 128 28.9
2020-Aug-13 21:31 152 28.9
2020-Aug-13 21:16 135 0 gusting 2 28.3
2020-Aug-13 21:00 128 0 gusting 3 27.8
2020-Aug-13 20:46 228 27.2
2020-Aug-13 20:31 229 27.2
2020-Aug-13 20:16 140 28.3
2020-Aug-13 20:01 068 0 gusting 2 28.3
2020-Aug-13 19:45 102 0 gusting 5 28.3
2020-Aug-13 19:30 213 28.3
2020-Aug-13 19:15 136 27.8
2020-Aug-13 19:01 138 28.3
2020-Aug-13 18:46 232 28.3
2020-Aug-13 18:31 187 27.8
2020-Aug-13 18:15 192 27.8
2020-Aug-13 18:00 188 27.2
2020-Aug-13 17:45 105 0 gusting 3 27.2
2020-Aug-13 17:30 094 0 gusting 2 26.7
2020-Aug-13 17:15 115 25.6
2020-Aug-13 17:00 079 25.6
2020-Aug-13 16:45 074 25.6
2020-Aug-13 16:33 069 25.0
2020-Aug-13 16:17 069 24.4
2020-Aug-13 16:02 320 23.9
2020-Aug-13 15:46 320 23.9
2020-Aug-13 15:32 320 23.3
2020-Aug-13 15:16 320 23.9
2020-Aug-13 15:01 320 23.3
2020-Aug-13 14:46 320 23.3
2020-Aug-13 14:31 320 22.8
2020-Aug-13 14:16 320 22.8
2020-Aug-13 14:01 320 22.8
2020-Aug-13 13:45 320 22.8
2020-Aug-13 13:30 320 22.8
2020-Aug-13 13:15 320 22.2
2020-Aug-13 13:00 320 22.2
2020-Aug-13 12:45 320 22.2
2020-Aug-13 12:30 320 22.2
2020-Aug-13 12:15 319 22.2
2020-Aug-13 12:00 319 21.7
2020-Aug-13 11:45 319 21.7
2020-Aug-13 11:30 319 21.7
2020-Aug-13 11:15 319 21.7
2020-Aug-13 11:00 319 21.7
2020-Aug-13 10:45 319 21.7
2020-Aug-13 10:30 319 21.7
2020-Aug-13 10:15 319 21.7
2020-Aug-13 10:00 319 21.7
2020-Aug-13 09:45 319 21.7
2020-Aug-13 09:30 319 21.7
2020-Aug-13 09:15 319 21.7
2020-Aug-13 09:00 319 21.1
2020-Aug-13 08:45 319 21.7
2020-Aug-13 08:30 319 21.7
2020-Aug-13 08:16 297 21.7
2020-Aug-13 08:01 297 21.7
2020-Aug-13 07:47 297 21.1
2020-Aug-13 07:32 297 21.7
2020-Aug-13 07:16 297 21.7
2020-Aug-13 07:03 297 21.7
2020-Aug-13 06:47 297 21.7
2020-Aug-13 06:32 297 21.7
2020-Aug-13 06:17 297 21.7
2020-Aug-13 06:02 297 21.7
2020-Aug-13 05:46 297 21.7
2020-Aug-13 05:33 297 21.7
2020-Aug-13 05:16 297 21.7
2020-Aug-13 05:02 297 21.7
2020-Aug-13 04:47 297 21.7
2020-Aug-13 04:31 297 21.1
2020-Aug-13 04:16 297 21.1
2020-Aug-13 04:01 297 21.1